Weather History for KOTH - November, 2010

Change the Weather History Date:

Saturday, November 27, 2010

  Actual Average Record
Temperature  
Mean Temperature 45 °F 47 °F  
Max Temperature 48 °F 53 °F 72 °F (2002)
Min Temperature 41 °F 41 °F 22 °F (1919)
Degree Days  
Heating Degree Days 20 18  
Month to date heating degree days 446 431  
Since 1 July heating degree days 1437 1397  
Cooling Degree Days 0 0  
Month to date cooling degree days 0 0  
Year to date cooling degree days 3 2  
Moisture  
Dew Point 34 °F    
Average Humidity 69    
Maximum Humidity 79    
Minimum Humidity 57    
Precipitation  
Precipitation 0.63 in 0.38 in 3.59 in (1945)
Month to date precipitation 6.69 9.05  
Year to date precipitation 54.51 52.60  
Sea Level Pressure  
Sea Level Pressure 29.89 in    
Wind  
Wind Speed 5 mph (SSE)    
Max Wind Speed 15 mph    
Max Gust Speed 18 mph    
Visibility 9 miles    
Events      
T = Trace of Precipitation, MM = Missing Value Source: NWS Daily Summary

Daily Weather History Graph

Daily Weather History Graph

Search for Another Location

Airport or City:

Trip Planner

Search our weather history database for the weather conditions in past years. The results will help you decide how hot, cold, wet, or windy it might be!

Date:

Astronomy

Nov. 27, 2010 Rise Set
Actual Time 7:25 AM PST 4:43 PM PST
Civil Twilight 6:53 AM PST 5:15 PM PST
Nautical Twilight 6:18 AM PST 5:50 PM PST
Astronomical Twilight 5:43 AM PST 6:25 PM PST
Moon 11:16 PM PST (11/27) 12:02 PM PST (11/27)
Length of Visible Light 10h 21m
Length of Day
9h 18m
Waning Gibbous, 62% of the Moon is Illuminated
Nov 27
Waning Gibbous
Nov 28
Last Quarter
Dec 5
New
Dec 13
First Quarter
Dec 21
Full

Hourly Weather History & Observations

Time (PST) Temp. Windchill Dew Point Humidity Pressure Visibility Wind Dir Wind Speed Gust Speed Precip Events Conditions
12:15 AM 44.6 °F - 37.4 °F 76% 29.87 in 10.0 mi Calm Calm - N/A   Overcast
12:35 AM 44.6 °F - 37.4 °F 76% 29.86 in 7.0 mi Calm Calm - N/A   Overcast
12:55 AM 44.6 °F - 33.8 °F 66% 29.86 in 7.0 mi Calm Calm - 0.02 in   Overcast
1:15 AM 44.6 °F 43.1 °F 35.6 °F 71% 29.85 in 9.0 mi SSE 3.5 mph - N/A   Overcast
1:35 AM 44.6 °F 40.7 °F 35.6 °F 71% 29.85 in 10.0 mi South 6.9 mph - N/A   Overcast
1:55 AM 44.6 °F 42.2 °F 37.4 °F 76% 29.84 in 10.0 mi SSE 4.6 mph - N/A   Overcast
2:15 AM 44.6 °F - 37.4 °F 76% 29.84 in 10.0 mi Calm Calm - N/A   Overcast
2:35 AM 44.6 °F 41.4 °F 37.4 °F 76% 29.84 in 8.0 mi ESE 5.8 mph - 0.01 in   Overcast
2:55 AM 44.6 °F 42.2 °F 37.4 °F 76% 29.84 in 7.0 mi SE 4.6 mph - 0.05 in   Overcast
3:15 AM 44.6 °F 41.4 °F 37.4 °F 76% 29.85 in 4.0 mi WNW 5.8 mph - 0.07 in   Overcast
3:35 AM 42.8 °F 40.1 °F 33.8 °F 70% 29.85 in 5.0 mi NE 4.6 mph - 0.21 in   Overcast
4:15 AM 42.8 °F 41.1 °F 33.8 °F 70% 29.83 in 10.0 mi SSE 3.5 mph - N/A   Overcast
4:35 AM 42.8 °F 39.3 °F 35.6 °F 76% 29.83 in 10.0 mi South 5.8 mph - N/A   Overcast
4:55 AM 42.8 °F - 33.8 °F 70% 29.83 in 10.0 mi Calm Calm - N/A   Overcast
5:15 AM 42.8 °F - 33.8 °F 70% 29.83 in 9.0 mi Calm Calm - 0.01 in   Overcast
5:35 AM 42.8 °F 39.3 °F 33.8 °F 70% 29.82 in 10.0 mi SE 5.8 mph - 0.01 in   Mostly Cloudy
5:55 AM 42.8 °F 39.3 °F 35.6 °F 76% 29.82 in 10.0 mi ESE 5.8 mph - 0.01 in   Overcast
6:15 AM 42.8 °F 39.3 °F 35.6 °F 76% 29.82 in 10.0 mi SE 5.8 mph - N/A   Overcast
6:35 AM 42.8 °F 40.1 °F 33.8 °F 70% 29.83 in 10.0 mi SE 4.6 mph - N/A   Overcast
6:55 AM 42.8 °F 39.3 °F 33.8 °F 70% 29.84 in 10.0 mi South 5.8 mph - N/A   Overcast
7:15 AM 42.8 °F 37.5 °F 35.6 °F 76% 29.84 in 10.0 mi SSE 9.2 mph - 0.01 in   Mostly Cloudy
7:35 AM 42.8 °F 38.6 °F 35.6 °F 76% 29.85 in 10.0 mi SE 6.9 mph - 0.01 in   Overcast
7:55 AM 42.8 °F 39.3 °F 35.6 °F 76% 29.85 in 10.0 mi SSE 5.8 mph - 0.01 in   Overcast
8:15 AM 42.8 °F 38.6 °F 33.8 °F 70% 29.85 in 10.0 mi SSE 6.9 mph - N/A   Mostly Cloudy
8:35 AM 42.8 °F 39.3 °F 35.6 °F 76% 29.85 in 10.0 mi SE 5.8 mph - N/A   Clear
8:55 AM 42.8 °F 39.3 °F 35.6 °F 76% 29.86 in 10.0 mi SSE 5.8 mph - N/A   Clear
9:15 AM 44.6 °F 40.7 °F 35.6 °F 71% 29.87 in 10.0 mi SSE 6.9 mph - N/A   Clear
9:35 AM 44.6 °F 42.2 °F 37.4 °F 76% 29.87 in 10.0 mi SSE 4.6 mph - N/A   Mostly Cloudy
9:55 AM 44.6 °F 40.7 °F 35.6 °F 71% 29.88 in 10.0 mi SE 6.9 mph - N/A   Mostly Cloudy
10:15 AM 44.6 °F 40.7 °F 37.4 °F 76% 29.88 in 10.0 mi SSE 6.9 mph - N/A   Scattered Clouds
10:35 AM 44.6 °F 40.7 °F 35.6 °F 71% 29.88 in 10.0 mi SSE 6.9 mph - N/A   Scattered Clouds
10:55 AM 46.4 °F 41.9 °F 37.4 °F 71% 29.88 in 10.0 mi SSE 9.2 mph - N/A   Scattered Clouds
11:15 AM 46.4 °F 42.9 °F 37.4 °F 71% 29.88 in 10.0 mi SSE 6.9 mph - N/A   Scattered Clouds
11:35 AM 48.2 °F - 37.4 °F 66% 29.88 in 10.0 mi SSE 8.1 mph - N/A   Mostly Cloudy
11:55 AM 46.4 °F 44.3 °F 37.4 °F 71% 29.88 in 10.0 mi SW 4.6 mph - N/A   Overcast
12:15 PM 42.8 °F 37.5 °F 28.4 °F 57% 29.89 in 6.0 mi SW 9.2 mph - 0.04 in   Overcast
12:35 PM 44.6 °F 40.2 °F 35.6 °F 71% 29.89 in 10.0 mi SW 8.1 mph - 0.04 in   Partly Cloudy
12:55 PM 44.6 °F 40.7 °F 33.8 °F 66% 29.89 in 10.0 mi SW 6.9 mph - 0.04 in   Partly Cloudy
1:15 PM 46.4 °F 42.9 °F 30.2 °F 53% 29.89 in 10.0 mi South 6.9 mph - N/A   Mostly Cloudy
1:35 PM 48.2 °F - 35.6 °F 62% 29.90 in 10.0 mi NE 4.6 mph - N/A   Mostly Cloudy
1:55 PM 44.6 °F - 30.2 °F 57% 29.90 in 9.0 mi Calm Calm - 0.05 in   Mostly Cloudy
2:15 PM 44.6 °F 43.1 °F 33.8 °F 66% 29.91 in 10.0 mi South 3.5 mph - N/A   Overcast
2:35 PM 44.6 °F 41.4 °F 33.8 °F 66% 29.90 in 10.0 mi SE 5.8 mph - N/A   Mostly Cloudy
2:55 PM 44.6 °F 41.4 °F 32.0 °F 61% 29.91 in 10.0 mi SE 5.8 mph - N/A   Mostly Cloudy
3:15 PM 44.6 °F 40.2 °F 32.0 °F 61% 29.91 in 10.0 mi SSE 8.1 mph - N/A   Overcast
3:35 PM 44.6 °F 40.7 °F 32.0 °F 61% 29.91 in 10.0 mi South 6.9 mph - N/A   Overcast
3:55 PM 44.6 °F 40.7 °F 32.0 °F 61% 29.92 in 10.0 mi SSE 6.9 mph - N/A   Overcast
4:15 PM 44.6 °F 41.4 °F 32.0 °F 61% 29.93 in 10.0 mi SE 5.8 mph - N/A   Overcast
4:35 PM 44.6 °F 40.7 °F 30.2 °F 57% 29.93 in 10.0 mi SSE 6.9 mph - N/A   Overcast
4:55 PM 42.8 °F 40.1 °F 28.4 °F 57% 29.93 in 10.0 mi ESE 4.6 mph - N/A   Mostly Cloudy
5:15 PM 42.8 °F 38.6 °F 32.0 °F 66% 29.94 in 10.0 mi SE 6.9 mph - N/A   Scattered Clouds
5:35 PM 42.8 °F 36.2 °F 32.0 °F 66% 29.94 in 9.0 mi WNW 12.7 mph - N/A   Mostly Cloudy
5:55 PM 44.6 °F 41.4 °F 35.6 °F 71% 29.95 in 10.0 mi North 5.8 mph - N/A   Mostly Cloudy
6:15 PM 44.6 °F 39.7 °F 35.6 °F 71% 29.96 in 10.0 mi NNW 9.2 mph - N/A   Mostly Cloudy
6:35 PM 44.6 °F 40.7 °F 33.8 °F 66% 29.97 in 10.0 mi NNW 6.9 mph - N/A   Mostly Cloudy
6:55 PM 44.6 °F 37.8 °F 35.6 °F 71% 29.97 in 10.0 mi North 15.0 mph 18.4 mph N/A   Mostly Cloudy
7:15 PM 44.6 °F 40.7 °F 35.6 °F 71% 29.97 in 10.0 mi NW 6.9 mph - 0.01 in   Mostly Cloudy
7:35 PM 42.8 °F - 33.8 °F 70% 29.98 in 10.0 mi Calm Calm - 0.01 in   Mostly Cloudy
7:55 PM 42.8 °F - 35.6 °F 76% 29.99 in 9.0 mi Calm Calm - 0.01 in   Mostly Cloudy
8:15 PM 41.0 °F 37.1 °F 28.4 °F 61% 30.00 in 10.0 mi SSE 5.8 mph - N/A   Overcast
8:35 PM 41.0 °F 39.0 °F 30.2 °F 65% 30.01 in 8.0 mi South 3.5 mph - 0.01 in   Overcast
8:55 PM 41.0 °F 38.0 °F 30.2 °F 65% 30.01 in 5.0 mi SE 4.6 mph - 0.02 in   Overcast
9:15 PM 39.2 °F 34.2 °F 32.0 °F 75% 30.01 in 9.0 mi SSE 6.9 mph - 0.01 in   Partly Cloudy
9:35 PM 39.2 °F 33.6 °F 33.8 °F 81% 30.01 in 8.0 mi SSE 8.1 mph - 0.01 in   Clear
9:55 PM 39.2 °F 33.0 °F 33.8 °F 81% 30.02 in 9.0 mi SE 9.2 mph - 0.01 in   Mostly Cloudy
10:15 PM 39.2 °F 33.6 °F 33.8 °F 81% 30.03 in 8.0 mi SSE 8.1 mph - N/A   Overcast
10:35 PM 39.2 °F 33.6 °F 33.8 °F 81% 30.03 in 10.0 mi South 8.1 mph - 0.01 in   Mostly Cloudy
10:55 PM 39.2 °F 33.6 °F 33.8 °F 81% 30.04 in 8.0 mi SE 8.1 mph - 0.02 in   Overcast
11:15 PM 39.2 °F 33.6 °F 33.8 °F 81% 30.05 in 10.0 mi SE 8.1 mph - 0.02 in   Overcast
11:35 PM 39.2 °F 33.6 °F 30.2 °F 70% 30.05 in 10.0 mi SE 8.1 mph - 0.03 in   Overcast
11:55 PM 39.2 °F 34.2 °F 33.8 °F 81% 30.05 in 10.0 mi SE 6.9 mph - 0.03 in   Overcast